Appleton, WI

3:05 PM CST on December 12, 2019 (GMT -0600)
Outagamie County Regional

Weather History for KATW - October, 2019

Change the Weather History Date:

Thursday, October 3, 2019

  Actual Average Record
Temperature  
Mean Temperature 50 °F -  
Max Temperature 55 °F 63 °F 84 °F (2005)
Min Temperature 44 °F 44 °F 30 °F (1987)
Degree Days  
Heating Degree Days 16    
Moisture  
Dew Point 46 °F    
Average Humidity 87    
Maximum Humidity 100    
Minimum Humidity 54    
Precipitation  
Precipitation 0.07 in - - ()
Sea Level Pressure  
Sea Level Pressure 30.04 in    
Wind  
Wind Speed 8 mph ()    
Max Wind Speed 20 mph    
Max Gust Speed 25 mph    
Visibility 7.1 miles    
Events Rain    
Averages and records for this station are not official NWS values.
T = Trace of Precipitation, MM = Missing Value Source: Averaged Metar Reports

Daily Weather History Graph

Daily Weather History Graph

Search for Another Location

Airport or City:

Astronomy

Oct. 03, 2019 Rise Set
Actual Time 6:53 AM CDT 6:31 PM CDT
Civil Twilight 6:25 AM CDT 7:00 PM CDT
Nautical Twilight 5:51 AM CDT 7:33 PM CDT
Astronomical Twilight 5:17 AM CDT 8:07 PM CDT
Moon 12:36 PM CDT (10/3) 9:59 PM CDT (10/3)
Length of Visible Light 12h 35m
Length of Day
11h 37m
Waxing Crescent, 30% of the Moon is Illuminated
Oct 3
Waxing Crescent
Oct 5
First Quarter
Oct 13
Full
Oct 21
Last Quarter
Oct 27
New

Hourly Weather History & Observations

Time (CDT) Temp. Windchill Dew Point Humidity Pressure Visibility Wind Dir Wind Speed Gust Speed Precip Events Conditions
12:15 AM 50.0 °F - 50.0 °F 100% 29.97 in 4.0 mi East 10.4 mph - N/A   Overcast
12:35 AM 50.0 °F - 50.0 °F 100% 29.96 in 4.0 mi East 8.1 mph - 0.01 in   Light Drizzle
12:55 AM 50.0 °F - 50.0 °F 100% 29.95 in 10.0 mi East 6.9 mph - 0.01 in   Overcast
1:15 AM 50.0 °F - 50.0 °F 100% 29.96 in 10.0 mi East 8.1 mph - N/A   Overcast
1:35 AM 50.0 °F - 50.0 °F 100% 29.95 in 10.0 mi East 10.4 mph - N/A   Overcast
1:55 AM 50.0 °F - 50.0 °F 100% 29.95 in 10.0 mi East 8.1 mph - N/A   Overcast
2:15 AM 50.0 °F - 50.0 °F 100% 29.94 in 7.0 mi East 12.7 mph - N/A   Overcast
2:35 AM 50.0 °F - 50.0 °F 100% 29.97 in 3.0 mi ENE 4.6 mph - 0.01 in Rain Heavy Rain
2:55 AM 50.0 °F - 50.0 °F 100% 29.96 in 3.0 mi ENE 4.6 mph - 0.05 in Rain Heavy Rain
3:15 AM 50.0 °F - 50.0 °F 100% 29.96 in 3.0 mi ENE 6.9 mph - 0.01 in   Light Drizzle
3:35 AM 50.0 °F - 50.0 °F 100% 29.95 in 3.0 mi ENE 9.2 mph - 0.01 in   Overcast
3:55 AM 50.0 °F - 50.0 °F 100% 29.95 in 3.0 mi ENE 5.8 mph - 0.01 in   Overcast
4:15 AM 50.0 °F - 50.0 °F 100% 29.96 in 4.0 mi ENE 8.1 mph - N/A   Overcast
4:35 AM 50.0 °F - 50.0 °F 100% 29.95 in 2.5 mi ENE 5.8 mph - N/A   Overcast
4:55 AM 50.0 °F - 50.0 °F 100% 29.94 in 2.0 mi ENE 6.9 mph - N/A   Overcast
5:15 AM 50.0 °F - 50.0 °F 100% 29.93 in 2.5 mi ENE 5.8 mph - N/A   Overcast
5:20 AM 50.0 °F - 50.0 °F 100% 29.94 in 2.0 mi East 8.1 mph - N/A   Overcast
5:45 AM 50.0 °F - 50.0 °F 100% 29.93 in 4.0 mi ENE 6.9 mph - N/A   Overcast
6:45 AM 50.0 °F - 50.0 °F 100% 29.93 in 4.0 mi East 5.8 mph - N/A   Overcast
7:45 AM 50.0 °F - 50.0 °F 100% 29.94 in 3.0 mi Calm Calm - N/A   Overcast
8:45 AM 51.8 °F - 51.8 °F 100% 29.94 in 5.0 mi Calm Calm - N/A   Overcast
9:45 AM 53.6 °F - 53.6 °F 100% 29.96 in 7.0 mi WSW 9.2 mph - N/A   Overcast
10:45 AM 53.6 °F - 51.8 °F 94% 29.98 in 10.0 mi West 18.4 mph 24.2 mph N/A   Light Drizzle
11:45 AM 53.6 °F - 46.4 °F 77% 30.01 in 10.0 mi WNW 19.6 mph 25.3 mph N/A   Overcast
12:45 PM 53.6 °F - 42.8 °F 67% 30.03 in 10.0 mi WNW 17.3 mph 25.3 mph N/A   Overcast
1:45 PM 53.6 °F - 42.8 °F 67% 30.04 in 10.0 mi West 15.0 mph 23.0 mph N/A   Overcast
2:45 PM 55.4 °F - 39.2 °F 54% 30.06 in 10.0 mi WNW 19.6 mph 25.3 mph N/A   Mostly Cloudy
3:45 PM 55.4 °F - 41.0 °F 58% 30.08 in 10.0 mi West 16.1 mph 23.0 mph N/A   Mostly Cloudy
4:45 PM 55.4 °F - 39.2 °F 54% 30.09 in 10.0 mi WNW 16.1 mph 21.9 mph N/A   Mostly Cloudy
5:45 PM 53.6 °F - 37.4 °F 54% 30.12 in 10.0 mi WNW 15.0 mph 21.9 mph N/A   Mostly Cloudy
6:45 PM 51.8 °F - 39.2 °F 62% 30.15 in 10.0 mi WNW 12.7 mph - N/A   Mostly Cloudy
7:45 PM 51.8 °F - 37.4 °F 58% 30.19 in 10.0 mi WNW 13.8 mph - N/A   Mostly Cloudy
8:45 PM 48.2 °F - 37.4 °F 66% 30.21 in 10.0 mi West 12.7 mph - N/A   Mostly Cloudy
9:45 PM 48.2 °F - 39.2 °F 71% 30.23 in 10.0 mi WNW 10.4 mph - N/A   Mostly Cloudy
10:45 PM 46.4 °F 42.9 °F 39.2 °F 76% 30.25 in 10.0 mi WNW 6.9 mph - N/A   Mostly Cloudy
10:55 PM 44.6 °F 41.4 °F 37.4 °F 76% 30.25 in 10.0 mi NW 5.8 mph - N/A   Clear
11:15 PM 44.6 °F 40.2 °F 39.2 °F 81% 30.26 in 10.0 mi WNW 8.1 mph - N/A   Scattered Clouds
11:35 PM 44.6 °F 39.2 °F 39.2 °F 81% 30.27 in 10.0 mi NW 10.4 mph - N/A   Mostly Cloudy
11:55 PM 44.6 °F 39.7 °F 39.2 °F 81% 30.27 in 10.0 mi NW 9.2 mph - N/A   Overcast